FW4185 Weather Reports


time (UTC)temp
F
wind
direction
speed
knots
gust
knots
rain 1hr
in
rain 24hr
in
rain mn
in
humidity
%
barometer
mb
20260507160227 0 358 0.9 7.0 0.00 0.00 0.00
20260507155323 50 356 4.3 7.0 0.00 0.00 0.00 57 1011.5
20260507154645 0 357 0.0 6.1 0.00 0.00 0.00
20260507153857 0 357 1.7 6.1 0.00 0.00 0.00
20260507152950 50 357 1.7 6.1 0.00 0.00 0.00 56 1011.6
20260507152311 49 355 4.3 7.0 0.00 0.00 0.00 60 1011.6
20260507151631 0 359 1.7 7.0 0.00 0.00 0.00
20260507150840 49 357 0.9 6.1 0.00 0.00 0.00 57 1011.6
20260507150200 49 358 0.9 4.3 0.00 0.00 0.00 59 1011.6
20260507145520 49 358 0.0 0.0 0.00 0.00 0.00 61 1011.6
20260507144511 51 357 0.0 0.0 0.00 0.00 0.00 56 1011.6
20260507143841 52 359 0.0 0.0 0.00 0.00 0.00 55 1011.6
20260507143156 50 358 0.0 0.0 0.00 0.00 0.00 55 1011.6
20260507142511 50 357 0.0 3.5 0.00 0.00 0.00 55 1011.6
20260507141830 49 357 0.0 3.5 0.00 0.00 0.00 58 1011.6
20260507141151 0 357 0.0 4.3 0.00 0.00 0.00
20260507140401 50 356 0.9 4.3 0.00 0.00 0.00 55 1011.7
20260507135721 52 358 0.0 0.0 0.00 0.00 0.00 52 1011.8
20260507135041 52 356 0.0 0.0 0.00 0.00 0.00 54 1011.9
20260507134401 50 358 0.0 0.0 0.00 0.00 0.00 56 1011.9
20260507133720 52 357 0.0 0.0 0.00 0.00 0.00 57 1012.0
20260507133041 0 357 0.0 0.0 0.00 0.00 0.00
20260507132252 0 358 0.0 0.0 0.00 0.00 0.00
20260507131502 47 358 0.0 0.0 0.00 0.00 0.00 64 1011.9
20260507130822 48 358 0.0 0.0 0.00 0.00 0.00 63 1011.9
20260507130143 48 358 0.0 0.0 0.00 0.00 0.00 63 1011.9
20260507125502 46 357 0.0 0.0 0.00 0.00 0.00 66 1011.9
20260507124822 47 358 0.0 0.0 0.00 0.00 0.00 68 1012.0
20260507124142 0 358 0.0 0.0 0.00 0.00 0.00
20260507123246 0 356 0.0 0.0 0.00 0.00 0.00
20260507122456 0 357 0.0 0.0 0.00 0.00 0.00
20260507121552 0 358 0.0 0.0 0.00 0.00 0.00
20260507120758 46 360 0.0 0.0 0.00 0.00 0.00 67 1012.1
20260507120124 0 357 0.0 0.0 0.00 0.00 0.00
20260507115329 44 358 0.0 0.0 0.00 0.00 0.00 71 1012.2
20260507114644 43 357 0.0 0.0 0.00 0.00 0.00 72 1012.3
20260507114005 0 357 0.0 1.7 0.00 0.00 0.00
20260507112959 0 358 0.0 0.0 0.00 0.00 0.00
20260507112207 42 358 0.0 0.0 0.00 0.00 0.00 74 1012.2
20260507111528 0 359 0.0 0.0 0.00 0.00 0.00
20260507110629 0 357 0.0 0.0 0.00 0.00 0.00
20260507105824 41 357 0.0 0.0 0.00 0.00 0.00 77 1011.7
20260507105145 41 355 0.0 0.0 0.00 0.00 0.00 78 1011.5
20260507104504 41 357 0.0 0.0 0.00 0.00 0.00 79 1011.4
20260507103824 41 357 0.0 0.0 0.00 0.00 0.00 80 1011.4
20260507103144 40 358 0.0 0.0 0.00 0.00 0.00 80 1011.3
20260507102505 40 358 0.0 0.0 0.00 0.00 0.00 81 1011.1
20260507101824 40 358 0.0 0.0 0.00 0.00 0.00 80 1011.2
20260507101144 0 357 0.0 0.0 0.00 0.00 0.00
20260507100357 0 358 0.0 0.0 0.00 0.00 0.00
20260507095607 40 358 0.0 0.0 0.00 0.00 0.00 82 1011.4
20260507094927 40 357 0.0 0.0 0.00 0.00 0.00 83 1011.3
20260507094247 0 358 0.0 0.0 0.00 0.00 0.00
20260507093456 0 357 0.0 0.0 0.00 0.00 0.00
20260507092707 40 357 0.0 0.0 0.00 0.00 0.00 84 1011.3
20260507092028 0 356 0.0 0.0 0.00 0.00 0.00
20260507091240 40 357 0.0 0.0 0.00 0.00 0.00 84 1011.4
20260507090453 0 357 0.0 0.0 0.00 0.00 0.00
20260507085703 40 358 0.0 0.0 0.00 0.00 0.00 84 1011.3
20260507085023 40 357 0.0 0.0 0.00 0.00 0.00 84 1011.2
20260507084343 40 358 0.0 0.0 0.00 0.00 0.00 84 1011.2
20260507083704 40 358 0.0 0.0 0.00 0.00 0.00 85 1011.2
20260507083024 40 358 0.0 0.0 0.00 0.00 0.00 85 1011.3
20260507082344 40 358 0.0 0.0 0.00 0.00 0.00 86 1011.4
20260507081704 40 357 0.0 0.0 0.00 0.00 0.00 85 1011.4
20260507081024 41 357 0.0 0.0 0.00 0.00 0.00 84 1011.5
20260507080344 42 358 0.0 0.0 0.00 0.00 0.00 84 1011.6
20260507075703 42 357 0.0 0.0 0.00 0.00 0.00 84 1011.6
20260507075024 42 357 0.0 2.6 0.00 0.00 0.00 84 1011.6
20260507074344 0 357 0.0 2.6 0.00 0.00 0.00
20260507073556 42 358 0.0 0.0 0.00 0.00 0.00 84 1011.4
20260507072915 42 356 0.0 0.0 0.00 0.00 0.00 84 1011.4
20260507072236 0 358 0.0 0.0 0.00 0.00 0.00
20260507071446 0 356 0.0 2.6 0.00 0.00 0.00
20260507070659 42 357 0.0 0.0 0.00 0.00 0.00 83 1011.3
20260507070017 42 359 0.0 3.5 0.00 0.00 0.00 83 1011.3
20260507065337 43 357 0.0 3.5 0.00 0.00 0.00 83 1011.3
20260507064656 43 356 0.0 4.3 0.00 0.00 0.00 82 1011.4
20260507064018 0 354 0.9 4.3 0.00 0.00 0.00
20260507063229 43 357 0.0 3.5 0.00 0.00 0.00 80 1011.8
20260507062549 43 358 0.0 2.6 0.00 0.00 0.00 81 1011.9
20260507061910 44 358 0.0 2.6 0.00 0.00 0.00 80 1011.9
20260507061230 44 355 0.0 2.6 0.00 0.00 0.00 81 1011.9
20260507060329 44 359 0.0 2.6 0.00 0.00 0.00 79 1011.8
20260507055650 44 357 0.0 0.0 0.00 0.00 0.00 78 1011.9
20260507055009 44 358 0.0 0.0 0.00 0.00 0.00 80 1011.8
20260507054330 44 359 0.0 0.0 0.00 0.00 0.00 81 1011.9
20260507053212 0 357 0.0 2.6 0.00 0.00 0.00
20260507052420 44 356 0.0 0.0 0.00 0.00 0.00 81 1012.1
20260507051740 44 358 0.0 2.6 0.00 0.00 0.00 81 1012.1
20260507051100 44 359 0.0 2.6 0.00 0.00 0.00 81 1012.3
20260507050420 45 358 0.0 3.5 0.00 0.00 0.00 79 1012.3
20260507045740 44 358 0.0 3.5 0.00 0.00 0.00 80 1012.2
20260507044948 45 358 0.0 3.5 0.00 0.00 0.00 80 1012.3
20260507044309 0 358 0.0 3.5 0.00 0.00 0.00
20260507043519 45 358 0.0 3.5 0.00 0.00 0.00 81 1012.4
20260507042840 45 357 0.0 2.6 0.00 0.00 0.00 81 1012.4
20260507042050 45 357 0.0 0.0 0.00 0.00 0.00 81 1012.4
20260507041411 0 357 0.0 0.0 0.00 0.00 0.00
20260507040622 45 358 0.0 2.6 0.00 0.00 0.00 80 1012.3
20260507035942 45 354 0.0 2.6 0.00 0.00 0.00 80 1012.3
20260507035305 45 358 0.0 0.0 0.00 0.00 0.00 80 1012.3
20260507034621 45 357 0.0 0.0 0.00 0.00 0.00 79 1012.2
20260507033944 0 355 0.0 0.0 0.00 0.00 0.00
20260507033121 45 357 0.0 0.0 0.00 0.00 0.00 78 1012.1
20260507032441 45 357 0.0 0.0 0.00 0.00 0.00 78 1012.3
20260507031802 0 357 0.0 0.0 0.00 0.00 0.00
20260507031012 45 358 0.0 0.0 0.00 0.00 0.41 77 1012.2
20260507030331 45 357 0.0 0.0 0.00 0.00 0.41 76 1012.3
20260507025652 45 357 0.0 0.0 0.00 0.00 0.41 75 1012.3
20260507025011 45 356 0.0 0.0 0.00 0.00 0.41 73 1012.4
20260507024332 0 355 0.0 0.0 0.00 0.00 0.41
20260507023432 45 357 0.0 0.0 0.00 0.00 0.41 72 1012.2
20260507022752 45 359 0.0 0.0 0.00 0.00 0.41 73 1012.1
20260507022113 0 357 0.0 0.0 0.00 0.00 0.41
20260507021324 0 358 0.0 0.0 0.00 0.00 0.41
20260507020532 46 356 0.0 0.0 0.00 0.00 0.41 73 1012.1
20260507015853 46 359 0.0 0.0 0.00 0.00 0.41 73 1012.3
20260507015212 45 357 0.0 2.6 0.00 0.00 0.41 71 1012.3
20260507014532 45 356 0.0 3.5 0.00 0.00 0.41 72 1012.5
20260507013853 0 358 0.0 0.0 0.00 0.00 0.41
20260507012843 45 358 0.0 0.0 0.00 0.00 0.41 73 1012.4
20260507012205 45 358 0.0 2.6 0.00 0.00 0.41 75 1012.3
20260507011523 45 357 0.0 2.6 0.00 0.00 0.41 74 1012.3
20260507010205 44 357 0.0 0.0 0.00 0.00 0.41 76 1012.1
20260507005525 45 359 0.0 0.0 0.00 0.00 0.41 78 1011.9
20260507004845 45 359 0.0 0.0 0.00 0.00 0.41 79 1011.9
20260507004205 45 358 0.0 0.0 0.00 0.00 0.41 77 1011.9
20260507003526 45 357 0.0 0.0 0.00 0.00 0.41 78 1011.8
20260507002846 0 357 0.0 0.0 0.00 0.00 0.41
20260507001941 0 356 0.0 0.0 0.00 0.00 0.41
20260507001153 0 358 0.0 0.0 0.00 0.00 0.41
20260507000405 45 357 0.0 0.0 0.00 0.00 0.41 78 1011.3
20260506235724 44 358 0.0 0.0 0.00 0.00 0.41 79 1011.2
20260506235044 0 357 0.0 0.0 0.00 0.00 0.41
20260506234142 44 359 0.0 0.0 0.00 0.00 0.41 78 1011.3
20260506233500 44 357 0.0 0.0 0.00 0.00 0.41 79 1011.2
20260506232710 44 358 0.0 0.0 0.00 0.00 0.41 77 1011.2
20260506231848 44 357 0.0 0.0 0.00 0.00 0.41 79 1011.3
20260506231209 44 355 0.0 0.0 0.00 0.00 0.41 78 1011.1
20260506230528 45 357 0.0 0.0 0.00 0.00 0.41 78 1011.2
20260506225848 46 357 0.0 0.0 0.00 0.00 0.41 77 1011.2
20260506225209 45 355 0.0 0.0 0.00 0.00 0.41 78 1011.1
20260506224528 45 358 0.0 4.3 0.00 0.00 0.41 78 1011.1
20260506223848 46 358 0.0 3.5 0.00 0.00 0.41 79 1011.1
20260506223208 45 357 0.0 4.3 0.00 0.00 0.41 80 1011.1
20260506222529 0 357 0.0 2.6 0.00 0.00 0.41
20260506221738 0 355 0.0 3.5 0.00 0.00 0.41
20260506220948 45 357 0.0 6.1 0.00 0.00 0.41 77 1010.5
20260506220309 0 356 1.7 7.8 0.00 0.00 0.41
20260506215518 44 354 2.6 7.8 0.00 0.00 0.41 80 1010.4
20260506214837 45 358 0.0 7.0 0.00 0.00 0.41 82 1010.4
20260506214157 44 359 2.6 8.7 0.00 0.00 0.41 82 1010.4
20260506213518 44 357 4.3 8.7 0.00 0.00 0.41 83 1010.3
20260506212839 0 356 4.3 3.5 0.00 0.00 0.41
20260506212046 0 354 6.1 8.7 0.00 0.00 0.41
20260506211256 45 356 6.1 12.2 0.00 0.00 0.41 85 1010.0
20260506210616 45 357 6.1 10.4 0.00 0.00 0.41 85 1009.9
20260506205936 47 357 4.3 13.9 0.00 0.00 0.41 84 1009.8
20260506205256 47 355 7.8 13.9 0.00 0.00 0.41 83 1009.8
20260506204617 48 356 7.0 11.3 0.00 0.00 0.41 83 1009.5
20260506203937 48 357 5.2 11.3 0.00 0.00 0.41 83 1009.4
20260506203257 0 357 7.0 3.5 0.00 0.00 0.41
20260506202509 49 357 6.1 13.9 0.00 0.00 0.41 83 1009.7
20260506201829 49 355 6.1 9.6 0.00 0.00 0.41 81 1009.6
20260506201149 0 357 5.2 5.2 0.00 0.00 0.41
20260506200400 50 357 3.5 3.5 0.00 0.00 0.41 77 1009.4
20260506195604 50 356 3.5 9.6 0.00 0.00 0.41 78 1009.3
20260506194923 51 357 3.5 8.7 0.00 0.00 0.41 77 1009.3
20260506194242 52 356 4.3 8.7 0.00 0.00 0.41 72 1009.2
20260506193603 0 356 6.1 7.8 0.00 0.00 0.41
20260506192813 52 356 5.2 8.7 0.00 0.00 0.41 67 1009.2
20260506192132 52 356 5.2 8.7 0.00 0.00 0.41 66 1009.1
20260506191452 54 357 2.6 7.0 0.00 0.00 0.41 63 1009.1
20260506190812 52 358 2.6 6.1 0.00 0.00 0.41 67 1009.1
20260506190132 0 357 1.7 3.5 0.00 0.00 0.41
20260506185259 0 358 3.5 5.2 0.00 0.00 0.41
20260506184508 54 359 0.9 4.3 0.00 0.00 0.41 65 1008.9
20260506183829 0 357 2.6 4.3 0.00 0.00 0.41
20260506183041 54 359 1.7 3.5 0.00 0.00 0.41 65 1008.9
20260506182401 53 357 0.9 4.3 0.00 0.00 0.41 62 1008.9
20260506181721 0 357 1.7 3.5 0.00 0.00 0.40
20260506180933 0 357 0.0 2.6 0.00 0.00 0.40
20260506175925 51 357 0.0 2.6 0.00 0.00 0.40 65 1009.0
20260506175241 0 357 0.0 0.0 0.00 0.00 0.40
20260506174224 0 358 0.9 2.6 0.00 0.00 0.40
20260506173327 52 355 0.0 0.0 0.00 0.00 0.40 67 1008.9
20260506172647 52 356 0.0 0.0 0.00 0.00 0.40 57 1009.0
20260506172012 52 355 0.0 0.0 0.00 0.00 0.40 60 1008.9
20260506171328 52 356 0.0 0.0 0.00 0.00 0.40 64 1009.0
20260506170647 52 359 0.0 0.0 0.00 0.00 0.40 68 1009.0
20260506170010 50 356 0.0 0.0 0.00 0.00 0.40 72 1009.0
20260506165221 50 357 0.0 0.0 0.00 0.00 0.40 76 1009.0
20260506164541 50 357 0.0 2.6 0.00 0.00 0.40 73 1009.0
20260506163750 50 356 0.0 3.5 0.00 0.00 0.40 73 1009.0
20260506163110 50 358 0.9 3.5 0.00 0.00 0.40 75 1008.9
20260506162430 51 358 0.0 2.6 0.00 0.00 0.40 74 1008.7
20260506161750 50 357 0.0 3.5 0.00 0.00 0.40 75 1008.6
20260506160958 0 354 0.9 3.5 0.00 0.00 0.40